Terminal Aerodrome Forecast
Issued by NWS

Home | Current Version | Previous Version | Text Only | Print | Product List | Glossary Off
Versions: 1 2 3 4 5 6 7 8 9 10 11 12 13 14 15

996
FTUS43 KICT 191728
TAFHUT
TAF
KHUT 191728Z 1918/2018 17014KT P6SM FEW250
     FM200600 18012KT P6SM FEW250 WS020/19040KT
     FM201300 17015G23KT P6SM SCT200
     FM201700 18025G34KT P6SM BKN110=

USA.gov is the U.S. government's official web portal to all federal, state and local government web resources and services.